Wetbulb
54.48 54.06 53.98 53.79 54.10 54.57 54.61 54.79 54.79 54.55 54.49 54.78 55.19 55.58 55.16 54.76 54.79 48.51 45.31 45.19 43.39 38.20 39.37 42.57 43.19 39.87 40.18 38.32 35.03 37.73 36.65 38.12 36.93 34.36 34.38 35.57 37.92 39.08 39.21 38.85 37.30 38.09 37.83 39.57 42.12 39.99 41.22 55.82 55.81 50.39 51.45 56.73 57.09 56.94
54.47 54.26 53.71 53.61 54.34 54.32 54.73 54.24 54.22 54.28 54.32 54.49 54.88 55.53 54.90 54.65 54.30 51.50 42.44 46.24 46.84 40.86 38.90 43.72 45.91 47.08 46.26 44.33 39.27 38.16 36.82 37.01 38.80 35.22 35.24 35.09 35.50 38.78 39.44 39.18 43.96 39.88 41.75 40.39 43.45 44.43 52.88 55.13 55.61 57.78 58.05 57.13 57.21 57.07
54.43 54.02 53.79 53.98 54.20 54.34 54.10 53.77 53.83 53.85 53.96 54.34 54.67 55.06 54.86 54.49 54.18 53.49 48.95 49.22 44.39 39.53 39.88 38.17 40.72 44.57 45.14 45.68 46.50 39.13 39.49 40.99 38.77 39.46 36.86 35.26 33.70 39.50 38.05 40.13 40.48 43.74 48.81 46.84 47.04 50.41 53.64 54.86 57.77 58.94 58.97 58.56 59.35 59.15
54.18 54.12 54.06 54.16 54.16 53.85 53.48 53.54 53.67 53.69 53.75 54.10 54.39 54.94 54.59 54.46 54.40 53.14 48.74 49.22 48.23 41.57 39.24 37.20 45.51 43.33 46.37 45.24 46.34 46.91 43.69 41.74 40.51 39.89 37.37 35.09 34.37 39.16 39.05 39.85 40.22 43.54 47.89 47.81 47.45 50.33 51.33 57.54 56.78 57.81 58.46 60.12 59.83 60.18
53.92 53.75 53.90 54.04 53.79 53.17 53.32 53.63 53.46 53.54 53.46 53.79 54.20 54.34 54.22 53.79 53.76 50.19 48.88 50.40 49.66 41.43 37.02 40.16 43.66 43.20 42.99 43.85 44.90 45.39 44.68 40.54 38.22 35.98 34.99 34.68 36.83 39.83 41.29 39.58 39.49 45.71 48.79 44.00 43.34 49.46 50.99 53.30 57.56 58.13 58.92 58.59 59.13 59.16
53.67 53.65 53.82 53.41 53.05 53.30 53.50 53.67 53.42 53.34 53.23 53.58 53.75 53.79 54.16 53.43 52.10 44.64 40.60 49.86 51.59 50.98 44.11 36.15 39.37 40.90 43.30 44.33 42.89 41.67 42.89 39.04 38.82 36.86 35.94 37.96 40.28 39.31 35.62 35.91 42.49 48.91 52.45 51.24 47.12 50.64 55.91 56.96 57.82 59.78 59.13 59.12 59.76 59.52
53.56 53.55 53.15 52.80 53.17 53.34 53.49 53.53 53.50 53.30 53.15 53.34 53.08 53.06 53.05 52.54 50.01 41.53 40.10 47.02 49.91 49.79 44.16 38.78 35.35 40.36 43.78 42.71 42.43 41.32 41.08 40.14 38.59 36.78 35.80 37.95 39.19 41.22 36.31 35.20 41.58 44.68 45.75 47.79 48.87 53.40 54.16 57.67 57.56 60.13 60.02 60.31 60.15 60.02
53.04 52.92 52.51 52.70 53.05 53.22 53.28 53.34 53.37 53.12 53.53 52.98 52.74 52.81 52.68 52.27 50.45 45.55 46.54 49.88 49.29 46.66 45.75 39.04 36.14 39.08 45.62 42.02 42.55 42.86 41.75 40.93 38.99 37.57 36.94 36.55 38.27 38.69 37.19 38.69 42.35 45.37 46.93 47.30 48.90 54.67 56.07 58.21 59.00 58.72 60.40 60.65 59.28 58.96
52.21 52.07 52.47 52.70 52.87 52.91 53.04 52.96 53.19 53.78 53.64 52.50 52.23 52.54 47.33 46.54 45.29 47.18 53.83 52.13 49.96 46.56 37.76 38.12 35.18 35.13 46.02 43.73 44.78 44.65 43.00 38.10 41.13 36.67 36.96 38.28 36.26 33.99 38.25 39.27 41.49 43.96 45.39 47.41 53.69 57.29 57.99 57.36 57.20 58.10 58.90 59.32 58.56 58.86
52.14 52.02 52.25 52.52 52.55 52.73 52.82 53.17 53.72 53.13 52.31 52.14 48.37 46.82 44.83 47.84 53.31 53.71 48.28 44.99 45.57 44.92 44.52 39.38 41.87 39.09 43.34 42.02 38.21 39.97 44.53 41.86 37.67 38.38 39.38 35.86 37.77 42.33 41.71 41.76 43.54 45.29 46.98 51.61 52.93 52.80 54.65 55.28 56.12 56.60 57.31 59.39 60.35 60.98
51.77 51.96 52.09 52.20 52.45 52.67 52.84 53.53 52.71 51.57 50.99 45.72 44.63 45.94 47.18 52.76 49.11 44.57 39.96 40.09 41.74 40.52 42.31 42.34 42.62 40.12 45.65 36.57 35.78 40.24 40.79 41.75 37.84 39.26 39.01 34.80 32.97 41.05 44.70 43.89 45.62 45.58 44.80 46.04 50.65 54.43 55.02 56.43 56.13 57.20 58.15 59.24 60.32 61.39
51.78 51.70 51.87 51.91 52.22 52.53 53.03 53.16 52.05 46.57 46.79 47.13 47.83 47.26 47.67 46.28 45.38 39.14 35.24 40.72 40.04 36.32 42.74 41.63 43.31 44.04 44.38 44.75 38.46 41.41 40.04 41.42 35.34 43.00 36.89 35.10 39.57 43.87 46.97 46.63 46.88 47.13 47.67 46.43 50.71 53.75 56.21 56.87 57.28 57.74 56.38 56.56 58.41 60.12
51.50 51.73 51.59 51.86 52.06 52.50 52.85 52.93 52.40 51.86 49.51 45.94 46.86 45.14 44.01 40.13 36.06 36.27 34.76 38.45 38.89 42.12 41.76 42.86 43.05 46.12 44.02 43.81 40.60 39.93 38.29 37.10 43.00 39.74 38.00 39.25 45.39 50.02 51.81 52.04 51.33 51.36 50.05 47.86 49.89 55.35 56.47 57.55 58.45 58.12 57.41 58.28 58.39 59.58
51.41 51.47 51.58 51.80 52.15 52.69 52.57 52.38 52.57 49.61 44.82 42.58 40.41 32.34 34.85 34.76 40.27 41.68 42.15 42.62 42.96 42.85 43.56 45.03 44.38 44.60 42.68 39.43 39.86 36.43 39.71 40.61 38.16 34.69 35.21 44.10 45.84 47.79 52.95 46.74 46.76 45.27 46.32 49.03 51.60 54.93 56.22 56.77 56.91 58.59 59.85 60.66 59.97 59.39
51.37 51.52 51.58 51.67 52.47 52.51 52.25 51.93 52.24 46.21 44.09 43.65 40.61 34.83 37.56 41.98 42.21 44.62 43.24 42.03 43.39 44.50 44.75 45.17 43.68 45.34 41.58 39.26 39.06 37.28 36.46 34.66 36.02 36.90 40.71 44.16 46.74 49.87 53.27 54.90 53.55 50.74 52.28 53.77 55.44 55.92 56.69 57.35 57.84 57.66 57.91 58.43 58.70 59.76
51.46 51.13 50.49 52.22 52.46 52.42 51.65 49.37 47.54 46.07 44.09 41.83 42.45 40.86 41.25 39.84 40.02 40.72 41.45 41.86 45.44 45.94 44.74 42.00 38.60 39.83 42.71 42.48 39.70 37.93 34.47 32.44 35.79 39.97 44.39 46.84 51.52 53.71 53.87 54.82 54.71 54.37 54.17 54.19 54.58 55.50 55.86 55.12 55.22 55.42 56.56 57.36 57.73 58.52
50.82 47.45 52.10 52.11 52.19 51.27 51.71 45.63 45.89 44.30 45.77 44.16 42.32 45.00 43.13 41.75 42.70 44.40 43.82 42.89 44.84 42.31 39.51 39.76 38.93 40.02 44.38 41.84 39.84 41.47 38.88 40.15 43.43 44.77 47.42 50.62 51.21 51.74 54.16 54.40 54.81 55.13 54.77 55.23 55.73 56.02 55.82 56.04 55.88 56.04 55.46 56.77 58.24 59.46
47.74 50.34 51.51 52.01 50.00 48.63 46.68 45.39 46.51 46.83 44.00 41.19 41.27 43.76 45.35 46.17 45.42 44.41 45.73 46.28 40.71 40.71 43.65 44.24 45.81 41.15 39.68 37.75 38.67 42.54 44.27 46.19 47.54 48.18 48.75 49.16 48.76 49.06 50.18 51.07 52.50 53.14 52.82 53.38 54.85 55.63 55.59 55.67 56.62 56.34 56.54 57.69 59.13 58.83
49.16 50.49 51.81 51.51 50.40 46.37 47.00 47.24 48.26 43.05 43.77 45.41 45.59 45.94 46.68 47.19 47.41 47.49 46.54 44.87 44.42 45.57 44.65 44.00 41.82 40.30 40.94 43.79 44.13 45.72 46.68 47.04 46.45 47.74 48.98 48.53 48.65 49.01 48.28 47.75 47.90 48.11 49.40 49.90 49.77 51.01 52.53 53.66 53.95 55.47 56.78 57.08 57.40 58.27
51.39 51.63 51.65 51.89 49.92 47.85 45.62 43.31 48.28 44.83 40.91 41.73 43.73 44.76 45.08 47.09 48.26 46.78 46.86 44.89 44.58 45.49 43.62 42.54 42.42 44.02 44.87 46.55 48.20 48.59 48.54 48.85 48.88 45.09 45.03 46.63 47.71 47.74 47.16 47.50 45.96 45.84 45.98 47.26 47.96 46.43 48.90 49.27 51.18 52.07 53.44 55.17 57.33 57.77
49.03 48.70 51.32 48.24 47.85 45.03 45.68 41.87 40.65 40.87 40.61 39.43 40.94 42.51 43.94 46.25 46.41 45.49 44.79 46.61 44.81 43.78 42.58 44.86 45.43 47.02 48.39 48.75 49.05 49.54 49.85 50.30 48.07 47.79 46.70 45.75 47.12 47.11 47.16 47.49 48.23 47.09 44.21 44.68 44.63 45.37 45.87 46.80 48.06 49.41 51.02 52.39 54.06 56.25
46.09 51.59 46.99 47.11 42.67 42.17 42.12 41.65 39.96 40.35 39.40 39.66 39.81 39.94 39.22 40.89 41.20 40.67 42.37 41.28 43.02 44.70 45.58 45.61 46.41 46.84 47.29 47.21 48.10 49.51 49.69 49.36 47.37 47.77 45.91 45.30 43.08 43.64 43.27 44.18 44.96 43.68 44.58 43.44 43.76 43.60 44.68 46.13 47.41 48.31 49.19 50.59 50.99 52.87
50.81 48.85 44.33 42.20 39.76 37.01 37.16 41.77 38.86 38.71 37.45 38.50 39.88 38.43 38.67 39.30 40.81 41.57 38.20 38.32 40.20 42.38 43.36 43.32 43.93 44.52 45.04 46.75 47.40 46.91 48.53 48.18 45.52 44.04 43.22 41.79 40.87 40.58 40.80 41.09 41.11 41.11 40.70 41.93 43.08 42.89 43.25 42.91 45.11 46.83 48.91 50.14 50.65 50.77
50.76 45.10 40.98 39.63 39.23 38.35 41.91 39.06 39.27 38.41 38.74 38.11 37.54 36.72 38.48 40.58 41.40 38.54 36.03 38.20 41.03 42.02 41.61 41.96 41.87 41.84 42.34 42.69 42.27 43.06 45.00 46.72 43.20 41.57 41.44 40.13 39.34 39.67 39.95 39.77 40.19 40.30 40.69 40.70 41.63 42.25 42.90 43.86 43.19 47.01 48.02 48.05 48.57 48.69
40.51 40.35 40.69 36.35 43.28 39.52 38.27 38.38 38.38 37.90 38.10 39.03 38.02 39.31 42.16 42.90 39.99 37.90 36.80 39.39 41.35 41.81 44.10 43.51 41.90 41.33 40.93 41.23 41.51 41.86 44.23 42.86 39.96 39.36 40.20 39.59 38.81 38.58 39.08 39.69 40.33 40.46 40.79 40.73 40.62 41.21 41.94 43.37 46.02 46.79 46.76 46.22 46.49 46.77
37.14 43.06 38.08 40.57 39.83 38.53 39.53 39.36 39.57 39.78 40.32 41.57 40.62 42.89 45.15 43.95 41.01 39.30 40.40 42.68 43.41 43.17 42.70 41.69 41.24 39.88 39.78 40.77 39.93 40.55 41.83 42.81 41.12 39.61 40.32 40.36 38.91 37.68 37.21 36.90 36.90 38.70 41.36 40.48 40.96 40.87 41.66 43.26 46.33 46.03 45.70 45.55 42.51 45.68
38.69 43.00 43.52 43.67 43.20 42.48 42.55 43.59 44.06 42.74 42.28 42.54 45.82 45.79 45.20 41.88 40.91 43.79 46.59 46.82 45.28 44.60 43.82 42.52 42.46 41.10 39.72 39.31 39.65 39.96 40.90 41.56 41.17 41.16 40.94 40.53 40.22 39.36 38.50 37.52 37.29 38.94 40.24 41.36 41.47 41.56 42.08 43.97 46.26 45.64 45.09 45.27 45.22 45.86
45.30 46.17 44.14 44.11 42.66 44.04 44.17 44.87 45.12 44.81 46.27 48.57 48.46 45.26 44.37 43.84 43.34 47.81 47.31 45.35 44.26 43.20 41.10 41.12 40.82 40.60 39.85 39.32 38.65 39.34 40.24 40.23 40.85 40.24 39.55 39.72 39.47 39.29 39.03 39.45 40.04 39.01 40.43 41.50 41.39 42.00 42.89 44.09 45.65 45.59 44.87 43.94 44.03 44.59
44.96 46.29 45.21 45.42 44.64 45.17 45.25 45.75 44.40 43.87 46.65 47.28 45.36 44.06 44.39 47.53 48.65 46.40 43.61 42.55 41.83 40.99 40.11 40.02 40.29 40.35 40.40 39.74 38.77 38.42 38.89 38.51 38.25 36.96 36.65 35.58 36.00 38.34 39.06 39.25 39.77 40.09 40.28 40.99 39.56 40.00 41.02 42.52 43.18 43.93 43.80 44.60 45.11 44.37
44.88 47.13 47.58 47.13 45.57 43.21 44.82 45.90 46.50 48.56 50.24 49.25 48.57 47.76 46.59 45.55 45.77 43.47 43.05 42.31 41.89 40.80 40.62 39.95 38.73 38.19 38.56 38.20 37.69 38.56 38.65 38.29 38.12 37.15 36.18 36.53 37.30 38.32 38.40 39.18 39.54 39.41 39.73 40.50 40.74 40.84 39.59 41.53 41.10 41.99 41.20 40.91 41.46 42.01
49.02 47.64 47.24 48.37 46.20 47.78 50.67 51.89 51.74 51.50 51.15 49.76 49.96 45.71 43.44 42.72 43.57 45.98 44.21 43.19 40.85 40.11 40.01 39.59 39.72 39.08 38.83 38.57 37.29 36.83 37.45 39.21 38.86 39.50 39.30 38.35 38.12 38.62 39.59 39.79 39.17 38.94 39.92 40.79 40.61 40.17 40.28 39.97 39.72 39.52 39.52 39.27 39.55 39.09
48.41 47.57 47.49 45.90 46.80 52.36 50.92 49.80 49.71 48.37 49.07 48.41 47.22 48.10 45.21 43.90 42.47 44.77 43.44 41.57 40.51 40.05 40.76 39.52 39.22 39.89 40.37 39.88 39.44 38.68 37.85 38.67 39.22 39.72 40.38 40.28 40.25 40.42 40.03 39.24 38.95 39.99 40.76 40.88 40.44 40.23 40.20 39.94 39.58 39.57 39.09 38.88 38.73 38.56
49.34 50.23 50.03 47.96 49.00 46.43 48.25 48.06 47.49 45.93 45.00 43.56 44.96 45.91 45.40 46.39 43.15 42.99 43.57 42.42 42.26 41.51 41.06 40.98 40.42 40.77 41.14 41.19 40.47 40.56 39.46 40.44 39.71 38.30 38.15 37.80 37.49 37.76 39.47 40.10 40.47 41.05 40.62 40.55 40.31 40.26 39.79 39.65 39.08 39.25 39.06 38.89 38.65 38.70
MSLP
1021.31 1021.27 1021.20 1021.10 1020.89 1020.68 1020.50 1020.21 1019.94 1019.71 1019.40 1019.07 1018.73 1018.43 1018.24 1018.02 1017.76 1017.86 1018.11 1017.87 1018.21 1018.39 1017.31 1016.61 1016.40 1016.31 1016.37 1016.66 1016.87 1016.34 1015.85 1015.43 1014.70 1014.30 1013.95 1013.02 1011.84 1010.05 1009.07 1007.65 1007.03 1006.85 1006.98 1006.93 1006.33 1005.40 1004.18 1002.93 1002.08 1003.12 1003.94 1002.95 1002.21 1000.42
1021.08 1021.04 1020.97 1020.90 1020.80 1020.55 1020.27 1020.03 1019.81 1019.60 1019.30 1019.08 1018.78 1018.44 1018.27 1018.15 1018.05 1018.01 1018.39 1018.13 1018.19 1018.49 1017.15 1016.28 1015.67 1015.17 1015.25 1015.48 1016.45 1016.53 1016.31 1015.97 1015.43 1015.29 1014.99 1014.18 1012.96 1011.43 1010.25 1008.99 1007.63 1007.34 1006.71 1006.52 1005.95 1004.59 1004.00 1003.53 1003.70 1004.12 1004.18 1003.94 1002.35 1001.15
1020.62 1020.54 1020.53 1020.49 1020.46 1020.31 1020.11 1019.90 1019.70 1019.43 1019.14 1018.96 1018.68 1018.39 1018.22 1018.12 1018.04 1017.99 1017.98 1018.01 1018.18 1018.16 1017.10 1016.32 1015.15 1014.63 1014.67 1014.98 1015.13 1016.01 1015.84 1015.23 1015.34 1015.14 1015.43 1015.05 1014.08 1012.71 1011.40 1009.99 1009.01 1007.50 1006.87 1006.57 1005.81 1004.68 1004.27 1003.67 1003.89 1004.12 1004.24 1003.86 1002.57 1001.64
1020.41 1020.34 1020.47 1020.43 1020.22 1019.98 1019.90 1019.74 1019.55 1019.27 1018.94 1018.72 1018.47 1018.26 1018.13 1018.00 1017.89 1017.88 1017.93 1017.78 1017.97 1018.03 1017.79 1015.94 1014.78 1014.52 1013.90 1014.14 1014.50 1014.59 1014.67 1014.91 1015.14 1015.39 1015.57 1015.23 1014.54 1012.92 1011.89 1010.82 1009.92 1008.13 1007.29 1006.82 1006.20 1005.32 1004.01 1003.73 1003.78 1003.91 1003.48 1003.12 1002.74 1001.56
1020.17 1020.17 1020.22 1020.14 1020.10 1019.87 1019.64 1019.52 1019.36 1019.09 1018.76 1018.47 1018.26 1018.13 1017.93 1017.81 1017.68 1017.66 1017.71 1017.39 1017.57 1018.18 1017.73 1016.00 1014.68 1013.87 1013.74 1013.91 1014.05 1014.12 1014.24 1014.85 1015.41 1015.71 1015.48 1015.05 1013.83 1013.02 1011.69 1011.08 1009.67 1008.12 1007.23 1007.00 1006.76 1006.36 1006.15 1004.95 1004.12 1004.01 1003.54 1003.11 1002.23 1001.58
1019.70 1019.88 1019.93 1019.69 1019.73 1019.62 1019.42 1019.28 1019.11 1018.85 1018.50 1018.22 1018.05 1017.89 1017.60 1017.61 1017.53 1017.74 1017.76 1017.53 1017.44 1017.49 1017.44 1016.74 1015.17 1014.22 1013.87 1013.52 1013.57 1013.57 1013.68 1014.42 1014.75 1014.79 1014.41 1013.63 1012.50 1012.53 1011.83 1010.60 1008.66 1007.81 1007.08 1006.69 1006.61 1006.37 1006.13 1005.47 1004.88 1004.11 1003.79 1003.63 1002.30 1001.40
1019.48 1019.55 1019.53 1019.49 1019.44 1019.34 1019.19 1019.03 1018.75 1018.43 1018.09 1017.89 1017.79 1017.60 1017.43 1017.49 1017.69 1017.82 1017.81 1017.52 1017.38 1017.37 1017.46 1016.88 1015.97 1014.41 1013.68 1013.36 1013.18 1013.31 1013.30 1013.34 1013.56 1013.73 1013.32 1012.77 1012.07 1011.59 1011.16 1010.15 1008.54 1007.73 1007.06 1006.50 1006.60 1006.40 1005.62 1005.17 1005.06 1004.49 1004.07 1003.27 1002.59 1001.88
1019.28 1019.35 1019.37 1019.35 1019.25 1019.05 1018.86 1018.62 1018.32 1017.93 1017.66 1017.51 1017.44 1017.30 1017.27 1017.29 1017.37 1017.31 1016.88 1016.75 1017.29 1017.70 1017.70 1017.37 1016.23 1014.95 1013.86 1013.61 1013.38 1013.06 1013.08 1012.92 1012.48 1012.12 1011.95 1011.64 1011.29 1010.90 1009.98 1008.48 1008.19 1007.58 1006.85 1006.06 1005.45 1005.83 1005.49 1004.96 1005.04 1004.71 1004.34 1004.01 1003.08 1002.75
1019.05 1019.18 1019.17 1019.16 1019.01 1018.79 1018.60 1018.28 1017.86 1017.49 1017.25 1017.23 1017.15 1017.13 1017.32 1017.28 1017.18 1016.88 1016.71 1016.85 1017.08 1017.67 1017.55 1017.28 1016.50 1015.02 1014.05 1013.75 1013.44 1013.12 1012.60 1012.35 1011.57 1011.17 1010.53 1010.38 1010.02 1009.25 1007.33 1007.52 1007.29 1006.89 1006.50 1005.36 1005.46 1005.42 1005.41 1005.16 1004.78 1004.60 1004.21 1003.89 1003.58 1003.28
1019.05 1019.03 1019.00 1018.96 1018.78 1018.60 1018.32 1017.87 1017.44 1017.13 1017.09 1017.08 1017.24 1017.26 1017.06 1016.79 1016.43 1016.71 1016.88 1017.11 1017.14 1017.18 1017.26 1016.62 1015.73 1014.89 1014.63 1013.70 1013.79 1013.28 1011.68 1011.11 1010.58 1009.04 1008.89 1008.75 1007.50 1006.65 1006.39 1006.23 1005.90 1005.62 1005.20 1005.28 1005.45 1005.44 1005.29 1005.04 1004.74 1004.16 1004.21 1003.97 1003.37 1003.57
1018.93 1018.89 1018.89 1018.76 1018.51 1018.30 1017.93 1017.67 1017.35 1017.11 1017.04 1017.25 1017.32 1017.25 1016.94 1016.54 1016.70 1016.86 1017.02 1017.03 1016.79 1016.68 1016.24 1015.22 1014.93 1014.36 1013.38 1013.90 1013.96 1013.22 1011.60 1010.34 1009.25 1008.54 1008.68 1007.82 1006.49 1004.97 1004.79 1004.92 1004.58 1004.73 1004.57 1004.72 1004.88 1005.10 1004.98 1004.68 1004.53 1004.26 1004.42 1003.93 1003.58 1002.96
1018.77 1018.81 1018.73 1018.49 1018.33 1018.01 1017.69 1017.54 1017.37 1017.50 1017.50 1017.57 1017.51 1017.28 1017.03 1016.81 1016.70 1016.96 1016.62 1016.44 1016.32 1015.91 1014.83 1014.48 1013.81 1013.36 1013.27 1013.52 1013.64 1012.56 1011.02 1010.04 1009.27 1008.91 1008.12 1007.05 1005.49 1004.57 1004.06 1003.66 1003.66 1003.51 1003.62 1004.17 1004.28 1004.11 1004.04 1004.10 1004.24 1004.21 1004.28 1004.06 1003.63 1003.68
1018.61 1018.62 1018.48 1018.26 1018.01 1017.73 1017.54 1017.37 1017.27 1017.24 1017.29 1017.44 1017.35 1017.12 1017.12 1017.08 1016.78 1016.49 1016.11 1016.04 1015.73 1014.86 1014.06 1013.47 1013.11 1012.66 1013.10 1013.23 1013.02 1012.26 1010.66 1009.61 1008.92 1007.92 1006.71 1006.18 1005.07 1003.72 1003.06 1002.46 1002.25 1002.62 1003.22 1003.98 1003.96 1003.64 1003.32 1003.29 1003.44 1003.64 1003.44 1003.08 1003.01 1002.83
1018.39 1018.35 1018.21 1017.98 1017.71 1017.54 1017.43 1017.36 1017.25 1017.27 1017.52 1017.55 1017.37 1017.33 1017.17 1016.56 1016.09 1015.72 1015.48 1015.37 1014.65 1014.07 1013.54 1013.12 1012.48 1012.15 1012.61 1012.83 1012.56 1011.81 1010.32 1009.58 1008.51 1007.57 1006.99 1006.21 1005.08 1003.68 1002.28 1001.47 1001.68 1002.13 1002.76 1003.39 1003.62 1003.62 1003.44 1003.32 1003.15 1003.00 1002.90 1002.69 1002.45 1002.35
1018.16 1018.04 1017.82 1017.68 1017.63 1017.46 1017.35 1017.24 1017.12 1017.31 1017.50 1017.41 1017.26 1016.92 1016.45 1015.83 1015.59 1015.18 1015.10 1015.04 1014.35 1013.71 1013.47 1012.51 1012.19 1011.95 1012.02 1012.25 1012.16 1011.87 1010.95 1010.19 1009.66 1008.98 1007.79 1006.38 1005.15 1003.98 1002.79 1001.97 1001.70 1002.16 1002.78 1003.29 1003.36 1003.29 1003.14 1003.04 1003.09 1003.03 1002.83 1002.41 1002.10 1001.72
1017.88 1017.67 1017.56 1017.59 1017.52 1017.35 1017.17 1017.12 1017.22 1017.41 1017.33 1017.14 1016.84 1016.37 1015.86 1015.60 1015.36 1015.18 1015.10 1014.85 1014.06 1013.59 1012.93 1012.64 1012.21 1011.66 1011.27 1011.19 1011.34 1011.51 1011.49 1011.25 1010.26 1008.65 1007.97 1006.58 1005.00 1004.44 1003.87 1003.37 1003.18 1003.41 1003.44 1003.33 1003.28 1003.23 1003.16 1003.02 1003.27 1003.29 1002.99 1002.54 1002.00 1001.43
1017.60 1017.59 1017.56 1017.50 1017.31 1017.09 1016.87 1017.16 1017.33 1017.22 1016.94 1016.64 1016.10 1015.64 1015.76 1015.62 1015.49 1015.26 1014.99 1014.51 1013.90 1013.83 1013.49 1012.94 1012.44 1011.84 1011.37 1011.16 1011.53 1011.48 1011.16 1011.33 1010.03 1008.84 1007.60 1007.13 1006.38 1005.73 1005.40 1004.90 1004.27 1004.52 1004.51 1004.07 1003.81 1003.72 1003.63 1003.55 1003.53 1003.31 1003.23 1002.98 1002.37 1001.69
1017.56 1017.53 1017.43 1017.30 1017.22 1017.19 1017.05 1017.11 1017.09 1016.84 1016.48 1016.18 1015.96 1015.64 1015.51 1015.36 1015.24 1014.88 1014.47 1014.06 1014.24 1013.80 1013.40 1013.04 1012.71 1012.53 1012.56 1012.50 1012.32 1011.88 1011.43 1010.67 1010.24 1009.77 1009.09 1008.33 1007.84 1007.22 1006.83 1006.44 1005.94 1005.84 1005.44 1005.30 1004.80 1004.49 1004.73 1004.49 1004.17 1003.93 1003.76 1003.41 1002.90 1002.12
1017.47 1017.37 1017.21 1017.13 1017.17 1017.31 1017.22 1017.07 1016.96 1016.80 1016.39 1016.17 1015.86 1015.58 1015.40 1015.22 1014.67 1014.35 1014.15 1013.84 1013.87 1013.68 1013.51 1013.42 1013.54 1013.51 1013.31 1013.02 1012.58 1012.34 1011.87 1011.40 1010.97 1010.28 1009.71 1009.16 1008.74 1008.18 1008.05 1007.87 1007.69 1007.47 1007.23 1006.99 1006.73 1006.50 1006.00 1005.40 1005.16 1004.87 1004.47 1003.90 1003.15 1002.99
1017.25 1017.18 1017.16 1017.16 1017.23 1017.27 1017.22 1017.22 1016.87 1017.00 1016.89 1016.62 1016.14 1015.77 1015.66 1015.23 1014.92 1014.47 1014.14 1013.87 1013.82 1013.92 1014.27 1014.37 1014.44 1014.24 1013.81 1013.38 1013.00 1012.57 1012.10 1011.64 1011.24 1010.68 1010.10 1009.61 1009.26 1008.97 1008.73 1008.44 1008.36 1008.39 1008.11 1007.62 1007.24 1006.82 1006.40 1005.94 1005.51 1005.23 1004.90 1004.40 1003.83 1003.72
1017.33 1017.24 1017.08 1017.31 1017.42 1017.37 1017.40 1017.46 1017.39 1017.34 1017.20 1016.94 1016.52 1016.30 1015.90 1015.46 1015.22 1015.06 1014.83 1014.55 1014.57 1015.24 1015.32 1015.14 1014.72 1014.11 1013.61 1013.29 1012.90 1012.42 1011.98 1011.60 1011.51 1011.44 1011.18 1010.71 1010.19 1009.93 1009.64 1009.44 1009.11 1008.85 1008.71 1008.48 1008.16 1007.45 1006.86 1006.74 1006.45 1005.89 1005.29 1004.89 1004.51 1004.23
1017.31 1017.09 1017.26 1017.31 1017.56 1017.59 1017.55 1017.49 1017.65 1017.46 1017.44 1016.95 1016.66 1016.49 1016.30 1016.00 1015.81 1015.65 1015.51 1015.40 1015.49 1015.38 1015.31 1015.01 1014.69 1014.33 1013.81 1013.24 1012.89 1012.36 1012.06 1011.76 1011.51 1011.45 1011.34 1011.20 1011.14 1010.84 1010.54 1010.30 1009.91 1009.75 1009.48 1009.30 1008.92 1008.44 1007.80 1007.02 1006.32 1005.90 1005.64 1005.39 1004.91 1004.55
1017.14 1017.21 1017.45 1017.56 1017.74 1017.90 1017.78 1017.47 1017.51 1017.39 1017.37 1016.99 1016.70 1016.53 1016.27 1016.04 1015.80 1015.74 1015.88 1015.87 1015.66 1015.10 1014.88 1014.73 1014.34 1014.03 1013.68 1013.11 1012.88 1012.51 1012.18 1012.08 1012.16 1012.16 1012.04 1011.88 1011.59 1011.24 1011.03 1010.93 1010.74 1010.49 1010.09 1009.54 1009.19 1008.85 1008.33 1007.64 1006.93 1006.31 1005.81 1005.37 1005.14 1004.99
1017.07 1017.34 1017.54 1017.60 1017.64 1017.52 1017.30 1017.31 1017.25 1017.15 1016.88 1016.68 1016.49 1016.08 1015.82 1015.68 1015.71 1015.81 1015.95 1015.76 1015.18 1014.87 1014.72 1014.45 1014.25 1014.01 1013.55 1013.20 1013.11 1012.88 1012.56 1012.38 1012.46 1012.47 1012.42 1012.32 1012.30 1012.02 1011.67 1011.32 1010.97 1010.69 1010.45 1009.91 1009.32 1008.85 1008.33 1007.84 1007.39 1006.94 1006.60 1006.28 1006.09 1005.79
1017.72 1017.60 1017.57 1017.32 1017.12 1017.26 1017.08 1016.87 1016.70 1016.62 1016.17 1015.85 1015.67 1015.17 1014.93 1015.13 1015.33 1015.55 1015.64 1015.47 1015.28 1014.92 1014.71 1014.36 1014.26 1014.22 1014.15 1013.89 1013.58 1013.19 1012.85 1012.75 1012.82 1012.97 1012.92 1012.84 1012.73 1012.43 1012.12 1011.66 1011.18 1010.71 1010.38 1009.94 1009.49 1009.12 1008.72 1008.36 1007.97 1007.67 1007.45 1007.24 1007.05 1006.76
1017.20 1016.96 1017.22 1016.75 1016.81 1016.82 1016.34 1015.99 1015.68 1015.27 1015.07 1014.77 1014.48 1014.11 1014.27 1014.51 1014.87 1015.01 1014.96 1014.78 1014.95 1014.80 1014.69 1014.66 1014.61 1014.44 1014.29 1014.03 1013.83 1013.49 1013.28 1013.00 1013.00 1013.03 1012.98 1012.93 1013.02 1013.01 1012.84 1012.58 1012.14 1011.32 1010.71 1010.48 1010.08 1009.51 1009.02 1008.61 1008.28 1007.99 1007.78 1007.62 1007.51 1007.09
1016.59 1016.13 1016.21 1016.13 1015.97 1015.80 1015.50 1014.76 1014.44 1014.34 1013.94 1013.51 1013.29 1013.56 1013.77 1013.97 1014.39 1014.66 1014.49 1014.35 1014.55 1014.43 1014.45 1014.46 1014.42 1014.31 1014.22 1013.93 1013.70 1013.46 1013.26 1013.10 1013.04 1013.03 1012.93 1012.81 1012.76 1012.81 1012.82 1012.65 1012.29 1011.76 1011.17 1010.67 1010.20 1009.79 1009.39 1008.90 1008.53 1008.24 1008.08 1007.95 1007.82 1007.65
1015.81 1015.46 1015.40 1015.32 1015.38 1014.92 1014.64 1014.10 1013.70 1013.36 1012.93 1012.57 1012.66 1013.10 1013.46 1013.82 1014.36 1014.50 1014.19 1014.18 1014.36 1014.34 1014.37 1014.33 1014.24 1014.19 1014.17 1014.03 1013.88 1013.63 1013.42 1013.33 1013.12 1012.95 1012.80 1012.65 1012.45 1012.37 1012.21 1011.93 1011.63 1011.25 1010.84 1010.50 1010.31 1009.87 1009.48 1009.19 1008.96 1008.73 1008.51 1008.37 1008.27 1008.12
1015.09 1014.71 1014.83 1014.58 1014.42 1014.22 1013.96 1013.67 1013.37 1013.05 1012.87 1012.66 1012.94 1013.71 1014.10 1014.17 1014.28 1014.08 1014.04 1014.07 1014.20 1014.38 1014.54 1014.54 1014.46 1014.28 1014.16 1014.06 1013.93 1013.80 1013.73 1013.73 1013.76 1013.63 1013.49 1013.35 1013.14 1012.51 1012.10 1011.88 1011.56 1011.19 1010.90 1010.53 1010.00 1009.81 1009.71 1009.41 1009.23 1008.98 1008.76 1008.59 1008.41 1008.32
1014.05 1013.91 1013.92 1013.67 1013.58 1013.44 1013.24 1013.15 1013.03 1012.90 1012.80 1012.81 1013.29 1013.61 1014.05 1014.14 1014.08 1014.14 1014.24 1014.36 1014.47 1014.60 1014.62 1014.58 1014.64 1014.71 1014.60 1014.47 1014.32 1014.10 1013.82 1013.76 1013.75 1013.81 1013.59 1013.26 1013.05 1012.65 1012.32 1011.98 1011.63 1011.26 1010.96 1010.64 1010.29 1009.96 1009.59 1009.39 1009.17 1008.91 1008.72 1008.60 1008.52 1008.45
1012.92 1013.17 1013.08 1013.02 1013.07 1012.99 1012.93 1012.94 1012.93 1012.92 1012.97 1013.08 1013.22 1013.57 1013.98 1014.21 1014.20 1014.24 1014.34 1014.44 1014.59 1014.62 1014.64 1014.69 1014.67 1014.61 1014.57 1014.42 1014.35 1014.33 1014.16 1013.62 1013.48 1013.26 1013.05 1012.84 1012.68 1012.42 1012.06 1011.75 1011.47 1011.18 1010.90 1010.63 1010.38 1010.15 1009.92 1009.66 1009.47 1009.26 1009.03 1008.79 1008.56 1008.40
1012.54 1012.61 1012.70 1012.87 1013.01 1012.94 1012.82 1012.98 1013.04 1013.04 1013.15 1013.40 1013.63 1013.77 1014.14 1014.30 1014.38 1014.34 1014.46 1014.51 1014.72 1014.77 1014.76 1014.84 1014.75 1014.57 1014.29 1014.16 1014.10 1014.04 1013.87 1013.73 1013.39 1013.05 1012.74 1012.44 1012.22 1011.98 1011.74 1011.45 1011.17 1010.96 1010.72 1010.44 1010.25 1010.08 1009.92 1009.75 1009.53 1009.32 1009.15 1008.99 1008.80 1008.57
1012.12 1012.17 1012.32 1012.59 1012.84 1013.02 1013.15 1013.04 1013.10 1013.29 1013.43 1013.58 1013.60 1013.71 1013.88 1014.00 1014.27 1014.53 1014.37 1014.37 1014.49 1014.59 1014.66 1014.56 1014.43 1014.23 1013.97 1013.77 1013.73 1013.60 1013.44 1013.26 1012.97 1012.67 1012.42 1012.16 1011.96 1011.72 1011.44 1011.12 1010.85 1010.62 1010.45 1010.25 1010.07 1009.90 1009.76 1009.60 1009.38 1009.15 1008.97 1008.83 1008.66 1008.47
Wind_Speed
10 9 9 11 10 10 11 11 12 12 13 13 14 13 10 10 11 4 3 3 3 1 6 5 4 5 2 2 2 4 5 3 4 5 1 2 2 3 3 3 4 6 4 4 2 2 6 6 6 4 6 9 14 13
8 9 8 10 10 10 10 11 11 11 11 12 12 12 8 7 7 2 2 2 1 3 6 3 5 5 6 7 5 2 4 2 4 2 2 3 3 3 1 4 4 3 5 4 7 5 3 1 3 2 4 12 10 12
9 8 8 8 9 10 10 11 11 11 11 11 12 12 7 7 5 4 2 2 1 2 5 3 4 3 3 8 8 4 3 4 1 3 2 2 4 1 3 3 4 3 0 2 3 1 3 3 2 1 8 11 14 14
8 8 8 9 9 8 10 10 11 11 11 11 11 12 7 8 6 3 2 1 1 1 3 7 2 6 3 5 10 10 4 1 3 3 2 3 3 3 3 4 2 5 4 1 5 5 10 4 9 11 17 13 12 13
8 7 7 8 9 9 9 10 11 11 11 11 11 11 6 7 7 2 3 2 2 3 3 6 7 3 1 4 8 9 11 5 2 1 3 4 3 2 3 1 4 3 4 3 4 1 3 10 11 18 14 16 13 12
7 6 7 6 7 9 9 10 11 12 11 12 11 12 7 5 5 3 3 1 2 2 3 5 5 5 4 5 7 7 9 4 4 5 5 5 5 2 3 4 7 4 1 3 2 4 5 12 15 14 11 13 13 10
6 5 6 6 7 8 9 11 12 13 12 11 9 10 3 4 1 2 4 2 2 1 2 4 5 5 4 3 3 1 3 4 5 4 5 5 4 6 3 6 7 7 9 10 6 4 7 3 5 8 10 12 11 11
3 5 6 6 7 8 10 12 12 12 11 8 7 8 6 5 4 3 3 6 5 1 2 3 6 5 2 3 2 1 3 2 3 4 1 4 3 3 7 7 11 15 18 18 15 9 11 9 7 8 6 7 5 5
3 6 5 7 8 9 11 13 13 12 8 5 6 8 2 0 1 2 5 8 1 2 1 2 3 5 3 2 2 3 3 2 2 4 5 6 5 8 9 8 8 10 9 13 3 4 6 7 9 7 5 3 3 2
6 5 5 7 8 10 11 12 13 6 6 5 1 1 1 2 2 6 1 1 1 2 1 3 3 4 3 2 2 4 3 3 4 7 4 5 13 15 10 9 9 12 15 5 5 5 4 7 7 7 6 6 3 3
5 5 6 7 9 10 10 9 8 7 2 2 1 1 2 4 1 2 2 1 1 3 4 4 3 6 3 2 3 4 3 3 4 2 1 3 5 15 17 16 14 12 11 10 5 6 6 3 4 4 6 6 6 4
6 6 7 8 9 9 8 7 6 3 1 1 2 2 1 1 0 2 2 1 2 4 3 3 5 4 1 2 2 3 5 3 3 3 3 4 4 6 5 11 13 18 18 8 6 8 7 7 6 5 5 7 6 4
5 7 8 9 9 8 7 6 5 4 2 1 1 1 2 2 2 1 4 2 3 3 4 3 6 1 1 1 3 3 5 5 1 4 2 4 9 10 8 12 16 15 14 7 7 7 7 7 3 5 6 7 6 5
6 8 9 9 9 5 6 5 5 3 2 1 1 5 3 3 2 3 3 3 6 4 8 7 4 2 2 0 2 4 4 4 4 2 3 6 17 19 14 2 7 7 10 8 7 7 8 7 6 6 7 5 6 6
8 9 10 6 2 6 6 5 3 2 1 0 1 2 3 3 3 4 2 4 5 4 6 6 3 2 2 1 1 4 6 4 4 4 7 12 20 14 10 10 11 9 7 5 4 5 6 3 2 5 6 7 6 5
8 8 1 2 7 8 6 2 2 1 0 0 2 3 4 2 4 3 3 4 3 6 5 1 2 2 0 2 1 3 6 4 5 7 11 15 12 12 12 12 14 9 6 5 5 4 3 5 4 4 6 5 6 6
6 1 2 7 8 8 1 2 1 2 2 2 3 2 2 3 3 3 3 4 3 3 3 2 5 4 4 3 5 4 3 6 10 12 11 12 13 13 12 12 14 12 10 9 8 9 7 7 6 5 7 8 7 6
1 1 7 7 3 3 1 1 1 2 2 2 2 3 2 2 4 4 3 3 2 2 2 3 2 6 4 5 4 5 7 9 7 7 9 12 14 13 12 13 13 11 12 10 9 10 7 6 6 6 6 8 5 6
3 4 6 1 1 1 1 1 1 2 2 2 3 2 2 3 4 4 4 3 2 2 1 3 4 3 3 2 4 6 6 7 5 5 4 6 8 8 8 6 8 8 8 7 6 4 4 5 4 5 5 5 5 5
3 1 1 2 1 0 0 2 1 1 2 3 3 3 2 3 4 4 5 4 3 3 5 4 3 3 3 3 3 4 4 5 4 5 7 8 7 8 8 7 6 5 5 6 5 6 5 5 5 6 5 6 7 6
2 2 1 2 1 2 1 1 2 1 2 2 2 3 3 3 3 3 3 3 4 3 2 2 3 5 5 5 5 4 4 3 3 2 3 4 6 5 7 6 6 6 5 6 6 7 7 5 4 4 4 5 5 4
2 2 1 1 3 3 1 1 2 2 0 3 3 1 1 2 3 3 3 4 1 2 3 2 2 3 5 6 5 5 5 5 5 3 5 5 4 5 5 6 6 6 6 4 5 6 6 7 6 5 4 5 4 3
1 1 2 3 1 2 4 1 1 1 1 3 3 3 2 2 3 2 2 2 4 3 3 3 5 4 6 6 4 4 3 4 4 4 3 3 3 4 4 4 4 5 6 6 5 4 5 8 7 7 5 4 4 4
1 1 1 0 1 2 2 1 0 1 2 1 1 3 2 2 1 3 0 3 4 3 2 4 2 4 3 2 3 3 3 1 3 3 4 4 5 5 4 4 4 3 2 5 4 4 5 6 7 5 7 7 7 6
2 2 3 2 1 0 2 1 2 0 3 3 3 3 3 2 2 1 1 3 3 3 4 4 3 2 1 3 3 3 5 2 3 4 3 3 3 4 5 5 5 4 4 7 8 7 6 5 5 4 6 6 7 9
1 3 6 4 2 3 4 3 4 6 4 4 5 2 2 3 2 2 2 2 2 2 3 2 1 2 3 1 2 3 3 2 1 2 2 2 2 2 3 4 4 5 5 4 4 6 7 5 3 5 7 8 9 8
3 4 4 3 2 2 3 4 2 2 3 4 3 4 4 3 2 1 3 1 2 2 2 2 2 2 1 3 3 2 2 2 2 1 3 3 2 1 1 2 4 4 6 5 5 5 5 4 4 4 4 5 6 6
3 2 4 3 3 3 3 3 3 3 2 2 2 1 2 3 2 2 3 1 1 2 2 1 1 0 0 1 2 3 3 4 4 4 3 4 3 3 4 3 3 8 5 4 4 5 5 5 3 4 4 4 4 4
4 3 2 3 3 3 4 2 2 2 2 1 2 3 1 2 3 2 2 2 2 3 3 3 4 4 2 3 3 3 2 3 4 4 4 4 4 5 4 5 5 4 4 4 9 6 6 4 4 3 3 3 2 2
5 4 3 3 3 4 2 3 1 1 2 2 2 2 2 2 1 1 1 2 2 2 1 1 2 3 3 2 3 4 2 1 2 3 3 4 4 4 5 5 5 4 3 4 4 5 8 5 5 4 5 4 2 2
2 3 2 2 2 1 2 1 1 0 1 2 2 3 3 2 2 1 2 2 2 2 2 3 4 2 3 2 1 2 4 3 5 6 5 4 4 4 5 5 4 3 3 3 2 3 4 4 4 4 5 6 7 5
2 3 4 2 1 1 2 1 1 1 1 1 1 2 1 2 2 1 1 2 2 1 1 1 2 4 3 3 3 3 6 4 5 4 6 4 3 4 4 3 3 3 3 2 3 3 3 5 4 4 4 5 6 6
2 1 2 3 2 2 0 2 1 1 1 0 2 3 3 3 3 3 1 1 2 2 2 3 4 4 5 5 4 3 4 4 6 8 9 7 5 6 4 3 3 3 3 3 3 3 5 7 7 7 6 6 6 6
Wind_Direction
271 287 288 300 307 316 322 325 328 333 338 340 342 348 6 6 6 49 294 353 87 238 273 204 208 172 146 120 103 294 350 347 345 40 82 279 258 268 303 242 200 168 155 212 140 149 245 347 14 45 280 302 301 330
272 286 287 297 305 313 318 322 326 328 330 330 332 339 354 0 359 64 346 311 57 183 242 246 231 217 185 177 148 244 205 230 227 35 3 312 313 323 296 234 328 243 185 204 180 220 200 319 164 229 303 291 298 314
260 273 277 289 300 309 313 319 323 325 326 323 326 332 341 345 347 0 300 279 76 331 300 349 240 287 169 202 173 160 260 227 259 168 166 244 269 100 276 268 294 286 172 193 6 29 273 259 68 348 328 307 307 305
265 274 283 295 297 307 313 317 318 320 320 318 323 326 331 336 332 340 288 170 263 10 300 284 313 277 218 167 186 205 211 99 99 97 201 224 235 176 256 266 248 239 337 309 283 325 334 109 4 339 330 327 311 328
265 273 284 294 301 306 308 310 315 317 317 317 316 317 317 333 327 319 269 245 186 120 266 285 301 269 288 184 212 221 227 188 147 182 179 218 237 256 216 8 260 232 204 140 223 331 253 282 316 323 323 318 321 335
254 264 282 291 294 298 305 310 315 313 314 313 314 319 317 348 360 38 11 89 201 197 322 313 286 305 308 251 231 216 205 156 186 174 204 223 241 151 265 232 256 260 227 150 248 327 243 281 298 296 317 315 328 339
247 267 275 283 298 301 311 309 306 306 308 305 308 320 354 356 122 155 188 204 101 23 316 297 302 276 291 295 307 255 184 194 171 199 212 196 233 174 211 239 287 273 276 279 259 273 293 262 275 309 308 320 344 1
256 279 288 303 301 312 309 307 307 308 303 296 302 321 313 288 275 301 273 255 150 273 302 285 278 313 22 306 297 332 258 205 203 209 130 180 192 193 248 220 226 254 273 282 289 221 240 280 291 279 297 280 22 354
311 289 298 304 309 315 313 310 312 305 306 316 314 305 6 200 182 237 95 111 115 146 232 239 253 267 54 277 310 276 224 240 237 217 212 145 188 212 226 187 218 232 225 260 327 204 257 268 276 278 261 256 232 5
263 283 309 306 317 315 311 319 318 334 321 312 2 236 340 216 200 128 84 63 159 218 227 256 275 263 224 168 283 277 219 240 233 227 129 199 227 229 216 216 215 218 234 233 254 246 242 259 256 270 240 246 262 226
290 301 309 313 311 311 316 323 341 348 61 62 35 289 297 315 33 45 309 229 104 253 210 235 224 256 193 154 242 269 289 256 251 297 176 255 275 231 218 222 223 229 235 239 239 253 235 219 266 290 302 287 288 283
297 307 309 310 313 317 312 325 344 29 70 228 289 284 302 26 87 14 269 255 197 253 256 214 242 232 127 151 224 254 267 262 288 287 232 279 286 261 222 228 233 241 240 234 207 254 261 260 253 249 265 276 269 264
312 306 306 307 314 309 313 329 334 269 3 44 239 308 25 311 355 315 341 326 275 232 244 257 300 144 170 213 252 268 263 236 9 234 273 258 270 303 272 244 231 230 235 170 208 235 250 259 276 275 280 275 238 265
307 303 304 309 309 309 326 342 343 20 51 54 44 329 139 252 236 245 265 261 260 250 294 305 263 226 117 147 284 266 281 301 285 289 287 322 326 321 329 318 159 159 135 156 205 227 240 236 257 284 278 294 311 303
310 306 302 293 347 338 333 330 323 84 92 321 88 300 243 254 267 265 303 302 272 275 317 293 269 256 117 159 205 295 322 330 325 325 303 313 317 316 350 30 71 88 102 127 183 221 248 255 281 300 313 310 299 283
317 316 104 52 334 332 322 350 65 93 48 210 222 287 289 323 300 330 306 295 292 316 309 267 287 295 112 200 286 16 334 330 295 285 297 304 336 19 21 37 47 38 46 77 68 49 23 20 9 337 326 325 328 316
319 187 40 338 333 335 82 98 91 227 252 219 268 238 281 279 284 289 283 266 289 321 333 339 5 348 295 9 360 350 354 275 301 305 321 9 12 15 26 34 43 27 16 16 33 44 38 22 14 33 18 340 341 10
230 326 331 327 349 329 11 125 228 268 281 249 291 312 314 251 290 293 278 287 352 312 320 18 314 19 5 344 322 321 318 321 336 354 10 12 27 23 27 26 30 14 22 12 12 16 8 10 16 19 349 341 329 21
271 294 307 267 91 102 306 255 202 326 277 323 310 308 297 296 269 281 296 309 224 253 66 22 41 353 336 296 293 338 339 348 336 328 328 339 16 11 23 47 49 32 21 7 13 355 336 9 5 346 346 335 19 12
318 301 91 153 161 353 57 326 28 339 312 279 304 333 282 270 306 309 350 356 22 49 35 37 360 300 299 278 290 297 288 295 321 347 354 1 2 7 10 9 22 3 15 14 354 355 356 6 7 356 353 4 24 15
8 299 37 99 52 43 107 328 1 231 294 326 299 340 307 327 335 339 339 339 47 37 32 306 283 289 255 264 271 274 287 326 336 328 293 320 348 358 13 7 12 24 14 11 5 352 5 359 334 334 350 358 356 359
256 334 62 351 58 352 56 236 169 276 326 262 321 26 323 324 314 318 318 33 32 232 217 236 256 281 312 315 315 305 306 350 11 14 9 347 15 11 6 1 13 12 13 3 351 341 330 324 333 341 351 338 344 358
285 61 57 35 138 62 254 62 52 257 286 292 355 338 289 274 233 348 40 236 259 253 242 247 257 251 255 276 319 334 5 39 53 40 19 2 348 6 11 8 4 6 358 348 339 324 324 318 328 338 338 345 359 358
309 85 125 77 145 241 71 296 262 291 289 274 220 264 239 235 10 47 278 269 260 283 274 279 295 309 318 329 7 337 335 55 97 53 24 31 15 347 335 330 332 326 302 286 311 340 345 348 343 7 16 13 13 15
68 274 124 266 240 39 241 241 235 279 251 212 218 250 213 147 144 202 215 275 302 298 313 341 20 41 49 317 311 325 346 85 95 78 0 29 353 350 353 340 333 318 337 358 354 346 345 345 360 17 28 31 31 35
229 207 163 200 202 183 212 216 212 215 208 215 226 232 172 144 157 212 227 217 245 282 314 349 5 24 11 298 308 340 326 341 79 65 313 12 18 12 331 342 334 322 346 328 318 332 338 337 10 31 33 27 22 37
251 220 201 224 208 186 264 249 248 207 238 217 191 179 182 184 125 61 298 227 241 270 271 254 190 166 194 309 313 326 345 22 81 227 286 314 304 236 252 305 314 282 310 317 336 341 340 342 13 30 35 29 31 32
248 270 223 180 207 211 259 272 214 226 277 334 142 51 39 39 81 246 232 229 207 153 126 78 51 95 87 327 317 336 1 358 351 350 344 336 326 309 332 321 290 311 335 345 350 351 358 9 17 34 42 36 20 19
232 224 172 235 222 203 216 250 288 274 292 307 84 54 55 175 226 252 292 175 150 106 69 33 359 358 353 344 357 7 3 14 4 352 340 315 321 311 338 331 329 333 339 340 336 356 4 14 17 16 356 319 313 339
237 176 209 219 192 218 241 186 232 304 14 88 89 106 146 242 304 327 130 110 93 102 199 54 348 6 319 308 320 332 333 316 233 223 266 283 267 293 307 314 317 318 322 332 345 339 345 1 349 349 354 354 340 335
156 171 242 159 166 191 97 55 30 100 52 58 88 102 114 157 341 104 114 99 116 81 50 5 341 337 322 283 241 315 316 302 323 309 279 262 280 288 297 305 301 296 298 303 330 344 339 338 336 334 342 347 346 346
159 198 166 134 151 147 92 93 61 60 61 70 82 106 101 93 172 195 231 119 88 53 332 289 318 302 295 259 246 246 248 283 301 311 330 317 303 293 292 293 298 294 312 341 344 342 336 335 320 319 313 327 339 345
117 113 103 113 136 157 277 126 99 89 32 152 227 191 191 168 189 217 314 171 167 181 241 276 279 282 283 269 231 268 299 295 305 314 322 324 299 297 300 309 312 305 300 301 303 316 322 314 312 304 306 307 312 303